Regional Weather Roundup
Issued by NWS

Home | Current Version | Previous Version | Text Only | Print | Product List | Glossary Off
Versions: 1 2 3 4 5 6 7 8 9 10 11 12 13 14 15 16 17 18 19 20 21 22 23 24 25 26 27 28 29 30 31 32 33 34 35 36 37 38 39 40 41 42 43 44 45 46 47 48 49 50

000
ASUS44 KMEG 271200
RWRTN
TENNESSEE HOURLY STATE WEATHER ROUNDUP
NATIONAL WEATHER SERVICE MEMPHIS TN
700 AM CDT FRI MAY 27 2016

TNZ002-004-019-021-049-052-054-088>092-271300-
WEST TENNESSEE

CITY           SKY/WX    TMP DP  RH WIND       PRES   REMARKS
MEMPHIS INTL   CLOUDY    74  68  81 S7        29.92R
NWS MEMPHIS      N/A     71 N/A N/A MISG        N/A
JACKSON        CLOUDY    70  64  81 S7        29.94F
DYERSBURG      CLOUDY    70  64  83 SE7       29.92S
UNION CITY     SUNNY     70  68  94 SE9       29.92S
PARIS          SUNNY     66  63  88 S7        29.98R
LEXINGTON      SUNNY     66  64  94 SE6       29.98S
$$

TNZ008-025-027-028-033-062-065-066-271300-
NORTH MIDDLE TENNESSEE

CITY           SKY/WX    TMP DP  RH WIND       PRES   REMARKS
NASHVILLE      CLOUDY    69  63  81 SE6       30.04S
CLARKSVILLE    CLOUDY    67  64  90 SE7       30.01R
COOKEVILLE     SUNNY     66  64  94 CALM      30.08R
CROSSVILLE     SUNNY     66  62  87 CALM      30.14R
$$

TNZ061-075-076-078-094-096-097-271300-
SOUTH MIDDLE TENNESSEE

CITY           SKY/WX    TMP DP  RH WIND       PRES   REMARKS
TULLAHOMA      SUNNY     72  66  83 S6        30.09S
WINCHESTER     SUNNY     72  63  73 S6        30.09S
MCMINNVILLE    SUNNY     68  66  94 CALM      30.09R
COLUMBIA       SUNNY    N/A N/A N/A S3        30.02S
SHELBYVILLE    SUNNY     75  64  69 S8        30.07S
$$

TNZ017-018-042-046-047-271300-
NORTHEAST TENNESSEE

CITY           SKY/WX    TMP DP  RH WIND       PRES   REMARKS
TRI CITIES     MOSUNNY   63  60  90 CALM      30.15R FOG
$$

TNZ012-013-036-069-073-074-271300-
CENTRAL EAST TENNESSEE

CITY           SKY/WX    TMP DP  RH WIND       PRES   REMARKS
KNOXVILLE      MOSUNNY   67  64  90 N6        30.10S
OAK RIDGE      SUNNY     66  62  87 CALM      30.13R
GATLINBURG     PTSUNNY   63  61  94 CALM      30.11S
$$

TNZ083-085-099-271300-
SOUTHEAST TENNESSEE

CITY           SKY/WX    TMP DP  RH WIND       PRES   REMARKS
CHATTANOOGA    PTSUNNY   69  63  81 CALM      30.10R
$$

SKY/WX REPORTED AS FAIR MEANS FEW OR NO CLOUDS BELOW
12 THOUSAND FEET.





USA.gov is the U.S. government's official web portal to all federal, state and local government web resources and services.